Fort Rucker / Ozark, AL

2:10 PM CDT on May 25, 2018 (GMT -0500)
Fort Rucker / Ozark

Weather History for KHEY - April, 2013

Change the Weather History Date:

Thursday, April 4, 2013

  Actual Average (KOZR) Record (KOZR)
Temperature  
Mean Temperature 58 °F -  
Max Temperature 61 °F 73 °F 84 °F (2008)
Min Temperature 53 °F 50 °F 44 °F (2004)
Degree Days  
Heating Degree Days 8    
Growing Degree Days 8 (Base 50)    
Moisture  
Dew Point 55 °F    
Average Humidity 91    
Maximum Humidity 97    
Minimum Humidity 81    
Precipitation  
Precipitation 0.08 in - - ()
Sea Level Pressure  
Sea Level Pressure 29.90 in    
Wind  
Wind Speed 8 mph (ENE)    
Max Wind Speed 12 mph    
Max Gust Speed -    
Visibility 7 miles    
Events Rain    
Averages and records for this station are not official NWS values.
T = Trace of Precipitation, MM = Missing Value Source: NWS Daily Summary

Daily Weather History Graph

Daily Weather History Graph

Search for Another Location

Airport or City:

Astronomy

Apr. 04, 2013 Rise Set
Actual Time 6:27 AM CDT 7:04 PM CDT
Civil Twilight 6:02 AM CDT 7:28 PM CDT
Nautical Twilight 5:34 AM CDT 7:57 PM CDT
Astronomical Twilight 5:04 AM CDT 8:26 PM CDT
Moon 2:32 AM CDT (4/4) 1:41 PM CDT (4/4)
Length of Visible Light 13h 25m
Length of Day
12h 36m
Waning Crescent, 33% of the Moon is Illuminated
Apr 4
Waning Crescent
Apr 10
New
Apr 18
First Quarter
Apr 25
Full
May 2
Last Quarter

Hourly Weather History & Observations

Time (CDT) Temp. Dew Point Humidity Pressure Visibility Wind Dir Wind Speed Gust Speed Precip Events Conditions
12:53 AM 59.0 °F 57.0 °F 93% 29.94 in 6.0 mi ENE 10.4 mph - 0.01 in   Overcast
1:53 AM 57.9 °F 57.0 °F 97% 29.91 in 5.0 mi ENE 9.2 mph - 0.03 in Rain Light Rain
2:28 AM 59.0 °F 57.2 °F 94% 29.93 in 3.0 mi ENE 6.9 mph - 0.00 in   Overcast
2:35 AM 59.0 °F 57.2 °F 94% 29.93 in 2.5 mi ENE 9.2 mph - 0.00 in   Overcast
2:46 AM 59.0 °F 57.2 °F 94% 29.93 in 3.0 mi ENE 6.9 mph - 0.00 in   Overcast
2:53 AM 59.0 °F 57.0 °F 93% 29.88 in 4.0 mi ENE 11.5 mph - 0.00 in   Overcast
3:53 AM 59.0 °F 57.9 °F 96% 29.87 in 4.0 mi NE 6.9 mph - 0.01 in Rain Light Rain
4:34 AM 59.0 °F 57.2 °F 94% 29.90 in 6.0 mi ENE 10.4 mph - 0.00 in   Overcast
4:53 AM 59.0 °F 57.9 °F 96% 29.86 in 8.0 mi ENE 9.2 mph - 0.00 in   Overcast
5:53 AM 59.0 °F 57.0 °F 93% 29.87 in 6.0 mi East 10.4 mph - 0.01 in Rain Light Rain
6:31 AM 57.2 °F 55.4 °F 94% 29.91 in 7.0 mi ENE 10.4 mph - 0.00 in   Overcast
6:53 AM 57.0 °F 55.9 °F 96% 29.88 in 8.0 mi East 9.2 mph - 0.00 in   Overcast
7:53 AM 57.0 °F 55.9 °F 96% 29.90 in 3.0 mi East 9.2 mph - N/A   Overcast
8:07 AM 57.2 °F 55.4 °F 94% 29.94 in 2.5 mi ENE 9.2 mph - N/A   Overcast
8:44 AM 57.2 °F 55.4 °F 94% 29.95 in 1.8 mi NE 4.6 mph - 0.01 in Rain Light Rain
8:53 AM 57.0 °F 55.9 °F 96% 29.92 in 3.0 mi NNE 5.8 mph - 0.01 in   Overcast
9:53 AM 57.0 °F 55.0 °F 93% 29.93 in 8.0 mi ENE 5.8 mph - 0.00 in   Overcast
10:40 AM 57.2 °F 55.4 °F 94% 29.96 in 10.0 mi ENE 6.9 mph - N/A   Overcast
10:53 AM 57.9 °F 55.9 °F 93% 29.93 in 10.0 mi NE 4.6 mph - N/A   Overcast
11:53 AM 59.0 °F 55.9 °F 90% 29.91 in 10.0 mi ENE 5.8 mph - N/A   Overcast
12:53 PM 59.0 °F 55.0 °F 87% 29.89 in 10.0 mi ENE 4.6 mph - N/A   Overcast
1:53 PM 60.1 °F 55.0 °F 83% 29.89 in 10.0 mi East 4.6 mph - N/A   Overcast
2:53 PM 61.0 °F 55.9 °F 83% 29.88 in 10.0 mi ENE 4.6 mph - N/A   Overcast
3:22 PM 60.8 °F 55.4 °F 82% 29.91 in 10.0 mi East 4.6 mph - N/A   Overcast
3:53 PM 61.0 °F 55.9 °F 83% 29.87 in 10.0 mi East 4.6 mph - N/A   Overcast
4:53 PM 61.0 °F 55.0 °F 81% 29.86 in 10.0 mi NE 5.8 mph - N/A   Overcast
5:48 PM 59.0 °F 53.6 °F 82% 29.90 in 10.0 mi ENE 8.1 mph - N/A   Overcast
5:53 PM 59.0 °F 54.0 °F 83% 29.86 in 10.0 mi NE 8.1 mph - N/A   Overcast
6:53 PM 57.0 °F 53.1 °F 87% 29.86 in 9.0 mi ENE 8.1 mph - N/A   Overcast
7:42 PM 55.4 °F 53.6 °F 94% 29.89 in 9.0 mi ENE 5.8 mph - N/A   Overcast
7:53 PM 55.9 °F 53.1 °F 90% 29.86 in 9.0 mi NE 9.2 mph - N/A   Overcast
8:53 PM 55.0 °F 52.0 °F 89% 29.86 in 10.0 mi ENE 8.1 mph - N/A   Overcast
9:53 PM 54.0 °F 52.0 °F 93% 29.88 in 10.0 mi NNE 8.1 mph - N/A   Overcast
10:53 PM 54.0 °F 52.0 °F 93% 29.89 in 8.0 mi ENE 4.6 mph - N/A   Overcast
11:53 PM 53.1 °F 52.0 °F 96% 29.88 in 6.0 mi ENE 8.1 mph - 0.01 in   Overcast